Flag for Portugal Weather past 2 weeks in Amadora, Portugal

Now
63 °F

Clear.


Feels Like: 63 °F
Forecast: 61 / 80 °F
Wind: 10 mph from Northeast

Location: Lisbon Portela Airport

Current Time: May 23, 2015 at 7:49:51 AM

Latest Report: May 23, 2015 at 7:00 AM


Visibility: 10 mi

Pressure: 30.04 "Hg

Humidity: 34%

Dew point: 34 °F

Location of AmadoraLocation

Historic Weather in Amadora — Graph

°F

Amadora temperature yesterday

Maximum temperature yesterday: 79 °F (at 2:00 PM)
Minimum temperature yesterday: 59 °F (at 6:00 AM)
Average temperature yesterday: 68 °F

Past Weeks' High & Low Weather Summary

 TemperatureHumidityPressure
High91 °F (May 17, 3:30 PM)94% (May 8, 6:00 AM)30.27 "Hg (May 8, 6:00 AM)
Low54 °F (May 20, 3:30 AM)16% (May 17, 4:00 PM)29.89 "Hg (May 18, 5:30 AM)
Average67 °F58%30.13 "Hg
* Reported May 8 6:00 AM — May 23 6:30 AM, Amadora, Weather by CustomWeather, © 2015

Note: Actual official high and low records may vary slightly from our data, if they occured in-between our weather recording intervals... More about our weather records

Advertising

Amadora weather history for previous 24 hours

 ConditionsComfort  
Time TempWeatherWind HumidityBarometerVisibility
6:30 AM
Sat, May 23
61 °FClear.8 mph39%30.04 "Hg10 mi
6:00 AM61 °FClear.9 mph39%30.01 "Hg10 mi
5:30 AM63 °FClear.9 mph37%30.01 "Hg10 mi
5:00 AM61 °FClear.8 mph39%30.04 "Hg10 mi
4:30 AM63 °FClear.9 mph39%30.04 "Hg10 mi
4:00 AM63 °FClear.8 mph42%30.04 "Hg10 mi
3:30 AM64 °FClear.8 mph40%30.04 "Hg10 mi
3:00 AM64 °FClear.8 mph40%30.04 "Hg10 mi
2:30 AM64 °FClear.9 mph40%30.04 "Hg10 mi
2:00 AM64 °FClear.9 mph43%30.07 "Hg10 mi
1:30 AM64 °FClear.9 mph46%30.07 "Hg10 mi
1:00 AM64 °FClear.10 mph46%30.07 "Hg10 mi
12:30 AM64 °FClear.10 mph46%30.07 "Hg10 mi
12:00 AM64 °FClear.12 mph49%30.07 "Hg10 mi
11:30 PM
Fri, May 22
63 °FClear.12 mph52%30.07 "Hg10 mi
11:00 PM64 °FClear.13 mph49%30.07 "Hg10 mi
10:30 PM64 °FClear.17 mph46%30.07 "Hg10 mi
10:00 PM64 °FClear.14 mph46%30.07 "Hg10 mi
9:30 PM64 °FSunny.16 mph46%30.07 "Hg10 mi
9:00 PM64 °FSunny.16 mph43%30.07 "Hg10 mi
8:30 PM66 °FSunny.16 mph43%30.07 "Hg10 mi
8:00 PM66 °FSunny.18 mph43%30.07 "Hg10 mi
7:30 PM68 °FSunny.16 mph38%30.04 "Hg10 mi
7:00 PM70 °FPassing clouds.16 mph33%30.07 "HgN/A
6:30 PM72 °FSunny.17 mph31%30.07 "Hg10 mi
6:00 PM73 °FSunny.17 mph29%30.07 "Hg10 mi
5:30 PM75 °FSunny.18 mph27%30.07 "Hg10 mi
5:00 PM77 °FSunny.17 mph26%30.07 "Hg10 mi
4:30 PM79 °FPassing clouds.13 mph26%30.07 "HgN/A
4:00 PM79 °FPassing clouds.15 mph16%30.07 "HgN/A
3:30 PM79 °FPassing clouds.14 mph21%30.09 "HgN/A
3:00 PM79 °FPassing clouds.12 mph23%30.09 "HgN/A
2:30 PM77 °FPassing clouds.14 mph24%30.09 "HgN/A
2:00 PM79 °FPassing clouds.14 mph23%30.09 "HgN/A
1:30 PM77 °FSunny.15 mph26%30.12 "Hg10 mi
1:00 PM75 °FPassing clouds.16 mph25%30.12 "HgN/A
12:30 PM73 °FSunny.15 mph27%30.12 "Hg10 mi
12:00 PM72 °FPassing clouds.16 mph29%30.15 "HgN/A
11:30 AM72 °FPassing clouds.17 mph29%30.15 "HgN/A
11:00 AM70 °FSunny.18 mph31%30.15 "Hg10 mi
10:30 AM68 °FSunny.18 mph33%30.15 "Hg10 mi
10:00 AM68 °FSunny.20 mph33%30.15 "Hg10 mi
9:30 AM66 °FSunny.20 mph32%30.15 "Hg10 mi
9:00 AM64 °FSunny.20 mph34%30.15 "Hg10 mi
8:30 AM64 °FSunny.18 mph32%30.15 "Hg10 mi
8:03 AM64 °FSunny.18 mph32%30.15 "Hg10 mi
8:00 AM64 °FSunny.17 mph34%30.15 "Hg10 mi
7:30 AM63 °FSunny.10 mph37%30.15 "Hg10 mi
7:00 AM63 °FClear.12 mph37%30.15 "Hg10 mi
Weather by CustomWeather, © 2015

See weather overviewHow to use our weather pages